Weather History for Deering, AK

Change the Weather History Date:

Sunday, February 3, 2013

  Actual Average (PAOT) Record (PAOT)
Temperature  
Mean Temperature 4 °F -2 °F  
Max Temperature 6 °F - 38 °F (1982)
Min Temperature 3 °F -9 °F -45 °F (1968)
Degree Days  
Heating Degree Days 60 67  
Month to date heating degree days 202  
Since 1 July heating degree days 8601  
Cooling Degree Days 0    
Month to date cooling degree days  
Year to date cooling degree days  
Moisture  
Dew Point 1 °F    
Average Humidity 83    
Maximum Humidity 87    
Minimum Humidity 79    
Precipitation  
Precipitation 0.00 in 0.02 in 0.93 in (1931)
Month to date precipitation 0.06  
Year to date precipitation 0.68  
Snow  
Snow 0.00 in 0.40 in 3.10 in (1974)
Month to date snowfall 1.0  
Since 1 July snowfall 39.0  
Snow Depth -    
Sea Level Pressure  
Sea Level Pressure 29.52 in    
Wind  
Wind Speed 17 mph (West)    
Max Wind Speed 22 mph    
Max Gust Speed -    
Visibility 3 miles    
Events Snow    
T = Trace of Precipitation, MM = Missing Value Source: NWS Daily Summary

Daily Weather History Graph

Daily Weather History Graph

Search for Another Location

Airport:

Trip Planner

Search our weather history database for the weather conditions in past years. The results will help you decide how hot, cold, wet, or windy it might be!

Date:

Astronomy

Feb. 03, 2013 Rise Set
Actual Time 10:38 AM AKST 5:32 PM AKST
Civil Twilight 9:36 AM AKST 6:34 PM AKST
Nautical Twilight 8:33 AM AKST 7:37 PM AKST
Astronomical Twilight 7:34 AM AKST 8:37 PM AKST
Moon 4:38 AM AKST (2/3) 10:53 AM AKST (2/3)
Length of Visible Light 8h 57m
Length of Day
6h 53m
Waning Gibbous, 47% of the Moon is Illuminated
Feb 3
Waning Gibbous
Feb 9
New
Feb 17
First Quarter
Feb 25
Full
Mar 4
Last Quarter

Hourly Weather History & Observations

Time (AKST) Temp. Windchill Dew Point Humidity Pressure Visibility Wind Dir Wind Speed Gust Speed Precip Events Conditions
12:35 AM 5.0 °F -12.3 °F 1.4 °F 85% 29.56 in 2.5 mi West 13.8 mph - 0.00 in Snow Light Snow
12:51 AM 5.0 °F -12.3 °F 1.4 °F 85% 29.56 in 3.0 mi West 13.8 mph - 0.00 in Snow Light Snow
12:53 AM 5.0 °F -12.3 °F 1.0 °F 84% 29.56 in 3.0 mi West 13.8 mph - 0.00 in Snow Light Snow
1:49 AM 5.0 °F -13.0 °F 1.4 °F 85% 29.55 in 5.0 mi West 15.0 mph - 0.00 in Snow Light Snow
1:53 AM 5.0 °F -12.3 °F 1.9 °F 87% 29.56 in 5.0 mi West 13.8 mph - 0.00 in Snow Light Snow
3:00 AM 5.0 °F -13.6 °F 1.4 °F 85% 29.55 in 8.0 mi West 16.1 mph - 0.00 in   Overcast
3:14 AM 5.0 °F -13.6 °F 1.4 °F 85% 29.54 in 7.0 mi West 16.1 mph - 0.00 in   Overcast
3:53 AM 5.0 °F -13.6 °F 1.0 °F 84% 29.54 in 5.0 mi West 16.1 mph - 0.00 in   Overcast
4:25 AM 3.2 °F -17.6 °F -0.4 °F 85% 29.53 in 4.0 mi West 19.6 mph - 0.00 in Snow Light Snow
4:27 AM 3.2 °F -18.1 °F -0.4 °F 85% 29.53 in 3.0 mi WSW 20.7 mph - N/A Snow Light Snow
4:53 AM 3.9 °F -16.1 °F -0.0 °F 84% 29.53 in 3.0 mi West 18.4 mph - 0.00 in   Overcast
5:40 AM 3.2 °F -17.1 °F -0.4 °F 85% 29.52 in 2.5 mi WSW 18.4 mph - N/A Snow Blowing Snow
5:45 AM 3.2 °F -18.1 °F -0.4 °F 85% 29.51 in 2.5 mi West 20.7 mph - 0.00 in Snow Light Snow
5:53 AM 3.9 °F -16.1 °F -0.9 °F 80% 29.52 in 1.8 mi West 18.4 mph - 0.00 in Snow Light Snow
6:11 AM 3.2 °F -17.6 °F -0.4 °F 85% 29.51 in 1.5 mi West 19.6 mph - 0.00 in Snow Light Snow
6:29 AM 3.2 °F -18.6 °F -0.4 °F 85% 29.51 in 2.0 mi West 21.9 mph - 0.00 in Snow Light Snow
6:53 AM 3.0 °F -18.8 °F -0.9 °F 84% 29.51 in 2.0 mi West 21.9 mph - 0.00 in   Overcast
7:03 AM 3.2 °F -18.6 °F -0.4 °F 85% 29.51 in 1.5 mi West 21.9 mph - 0.00 in Snow Light Snow
7:38 AM 3.2 °F -17.1 °F -0.4 °F 85% 29.50 in 1.5 mi West 18.4 mph - 0.00 in Snow Light Snow
7:51 AM 3.2 °F -17.6 °F -0.4 °F 85% 29.50 in 1.8 mi West 19.6 mph - 0.00 in Snow Light Snow
7:53 AM 3.9 °F -16.6 °F -0.0 °F 84% 29.50 in 2.0 mi West 19.6 mph - 0.00 in Snow Light Snow
8:53 AM 3.9 °F -16.1 °F -0.0 °F 84% 29.51 in 2.5 mi West 18.4 mph - 0.00 in Snow Light Snow
9:07 AM 3.2 °F -17.1 °F -0.4 °F 85% 29.51 in 3.0 mi West 18.4 mph - 0.00 in   Overcast
9:14 AM 3.2 °F -17.1 °F -0.4 °F 85% 29.50 in 2.5 mi West 18.4 mph - 0.00 in Snow Light Snow
9:33 AM 3.2 °F -17.6 °F -0.4 °F 85% 29.51 in 1.5 mi West 19.6 mph - 0.00 in Snow Light Snow
9:49 AM 3.2 °F -17.1 °F -0.4 °F 85% 29.51 in 2.5 mi West 18.4 mph - 0.00 in Snow Light Snow
9:53 AM 3.9 °F -15.6 °F -0.0 °F 84% 29.51 in 2.5 mi West 17.3 mph - 0.00 in Snow Light Snow
10:07 AM 3.2 °F -17.6 °F -0.4 °F 85% 29.50 in 3.0 mi West 19.6 mph - 0.00 in Snow Light Snow
10:36 AM 3.2 °F -17.1 °F -0.4 °F 85% 29.50 in 1.8 mi West 18.4 mph - 0.00 in   Overcast
10:53 AM 3.9 °F -15.6 °F -0.0 °F 84% 29.51 in 1.8 mi West 17.3 mph - 0.00 in   Overcast
11:01 AM 3.2 °F -16.5 °F -0.4 °F 85% 29.50 in 2.5 mi West 17.3 mph - 0.00 in   Overcast
11:27 AM 5.0 °F -14.2 °F 1.4 °F 85% 29.51 in 5.0 mi West 17.3 mph - 0.00 in   Overcast
11:43 AM 5.0 °F -14.2 °F 1.4 °F 85% 29.51 in 2.5 mi West 17.3 mph - 0.00 in Snow Blowing Snow
11:51 AM 5.0 °F -14.7 °F 1.4 °F 85% 29.51 in 3.0 mi West 18.4 mph - 0.00 in Snow Blowing Snow
11:53 AM 5.0 °F -14.7 °F 1.0 °F 84% 29.51 in 3.0 mi West 18.4 mph - 0.00 in Snow Blowing Snow
12:00 PM 5.0 °F -13.6 °F 1.4 °F 85% 29.51 in 2.5 mi West 16.1 mph - N/A Snow Blowing Snow
12:06 PM 6.8 °F -10.0 °F 1.4 °F 79% 29.51 in 3.0 mi West 13.8 mph - N/A Snow Blowing Snow
12:32 PM 6.8 °F -11.3 °F 1.4 °F 79% 29.51 in 4.0 mi West 16.1 mph - N/A   Overcast
12:40 PM 6.8 °F -12.4 °F 1.4 °F 79% 29.51 in 1.8 mi West 18.4 mph - N/A Snow Blowing Snow
12:53 PM 6.1 °F -13.3 °F 1.9 °F 83% 29.52 in 2.0 mi West 18.4 mph - N/A Snow Blowing Snow
1:11 PM 6.8 °F -12.9 °F 1.4 °F 79% 29.51 in 1.8 mi West 19.6 mph - N/A Snow Blowing Snow
1:26 PM 6.8 °F -12.4 °F 1.4 °F 79% 29.51 in 3.0 mi West 18.4 mph - 0.00 in   Overcast
1:39 PM 6.8 °F -12.4 °F 1.4 °F 79% 29.51 in 2.0 mi West 18.4 mph - 0.00 in Snow Blowing Snow
1:46 PM 6.8 °F -12.9 °F 1.4 °F 79% 29.51 in 1.8 mi West 19.6 mph - 0.00 in Snow Blowing Snow
1:53 PM 6.1 °F -14.3 °F 1.9 °F 83% 29.51 in 1.8 mi West 20.7 mph - 0.00 in Snow Blowing Snow
1:59 PM 6.8 °F -12.9 °F 1.4 °F 79% 29.51 in 2.5 mi West 19.6 mph - N/A Snow Blowing Snow
2:13 PM 6.8 °F -12.4 °F 1.4 °F 79% 29.51 in 1.2 mi West 18.4 mph - 0.00 in   Overcast
2:24 PM 6.8 °F -12.4 °F 1.4 °F 79% 29.51 in 0.8 mi West 18.4 mph - 0.00 in   Overcast
2:35 PM 6.8 °F -12.4 °F 1.4 °F 79% 29.51 in 1.0 mi West 18.4 mph - 0.00 in Snow Light Snow
2:43 PM 6.8 °F -12.4 °F 3.2 °F 85% 29.51 in 0.8 mi West 18.4 mph - 0.00 in   Overcast
2:53 PM 6.1 °F -12.8 °F 3.0 °F 87% 29.52 in 1.2 mi West 17.3 mph - 0.00 in   Overcast
3:39 PM 6.8 °F -11.3 °F 3.2 °F 85% 29.52 in 3.0 mi West 16.1 mph - 0.00 in Snow Blowing Snow
3:44 PM 6.8 °F -11.8 °F 3.2 °F 85% 29.51 in 2.5 mi West 17.3 mph - 0.00 in Snow Blowing Snow
3:53 PM 6.1 °F -13.3 °F 3.0 °F 87% 29.52 in 2.5 mi West 18.4 mph - 0.00 in Snow Blowing Snow
4:00 PM 6.8 °F -12.4 °F 1.4 °F 79% 29.52 in 3.0 mi West 18.4 mph - N/A Snow Blowing Snow
4:53 PM 6.1 °F -10.9 °F 3.0 °F 87% 29.53 in 5.0 mi WSW 13.8 mph - 0.00 in   Overcast
5:26 PM 6.8 °F -10.7 °F 1.4 °F 79% 29.53 in 2.0 mi West 15.0 mph - 0.00 in   Overcast
5:38 PM 6.8 °F -11.8 °F 1.4 °F 79% 29.52 in 1.5 mi West 17.3 mph - 0.00 in Snow Blowing Snow
5:53 PM 6.1 °F -12.2 °F 1.9 °F 83% 29.53 in 2.0 mi West 16.1 mph - 0.00 in Snow Blowing Snow
6:09 PM 6.8 °F -9.3 °F 1.4 °F 79% 29.53 in 4.0 mi WSW 12.7 mph - N/A Snow Blowing Snow
6:35 PM 6.8 °F -11.3 °F 3.2 °F 85% 29.53 in 2.5 mi West 16.1 mph - 0.00 in Snow Blowing Snow
6:53 PM 6.1 °F -11.6 °F 3.0 °F 87% 29.54 in 2.5 mi West 15.0 mph - 0.00 in Snow Blowing Snow
7:00 PM 6.8 °F -10.7 °F 3.2 °F 85% 29.53 in 3.0 mi West 15.0 mph - N/A Snow Blowing Snow
7:33 PM 6.8 °F -6.9 °F 1.4 °F 79% 29.54 in 3.0 mi WSW 9.2 mph - 0.00 in   Overcast
7:41 PM 6.8 °F -7.8 °F 1.4 °F 79% 29.54 in 2.5 mi WSW 10.4 mph - 0.00 in Snow Light Snow
7:53 PM 6.1 °F -7.8 °F 1.9 °F 83% 29.55 in 2.5 mi WSW 9.2 mph - 0.00 in Snow Light Snow
8:45 PM 6.8 °F -11.3 °F 1.4 °F 79% 29.54 in 3.0 mi West 16.1 mph - 0.00 in   Overcast
8:53 PM 6.1 °F -12.2 °F 1.0 °F 80% 29.55 in 3.0 mi West 16.1 mph - 0.00 in   Overcast
9:10 PM 5.0 °F -14.2 °F 1.4 °F 85% 29.54 in 4.0 mi West 17.3 mph - 0.00 in   Overcast
9:53 PM 6.1 °F -12.2 °F 1.9 °F 83% 29.55 in 6.0 mi West 16.1 mph - 0.00 in   Overcast
10:53 PM 6.1 °F -12.8 °F 1.0 °F 80% 29.57 in 6.0 mi West 17.3 mph - N/A   Haze
11:53 PM 6.1 °F -10.9 °F 1.0 °F 80% 29.58 in 10.0 mi West 13.8 mph - N/A   Overcast